Location: Ahausen
(50.4985°N, 8.2722°E)
Time: 18:12:32
(UTC+00:00)

Cosmos 2279 Rocket - Pass Details

Date: 18 September 2020
Orbit: 964 x 979 km, 82.9° (Epoch: 21 October)

Event Time Altitude Azimuth Distance (km) Brightness Sun altitude
Exits shadow 20:20:51 60° 116° (ESE) 1,113 3.9 -25.5°
Maximum altitude 20:21:20 62° 94° (E) 1,096 3.9 -25.6°
Drops below altitude 10° 20:27:31 10° 15° (NNE) 2,743 6.6 -26.3°
Sets 20:30:04 0° 12° (NNE) 3,695 7.4 -26.6°
